Location: Keewatin
(47.4004°N, 93.0827°W)
Time: 20:19:57
(UTC+00:00)

Envisat - Pass Details

Date: 17 December 2019
Orbit: 764 x 766 km, 98.1° (Epoch: 28 January)

Event Time Altitude Azimuth Distance (km) Brightness Sun altitude
Rises 23:17:44 0° 143° (SE) 3,223 6.1 -8.9°
Reaches altitude 10° 23:20:08 10° 136° (SE) 2,301 5.3 -9.3°
Maximum altitude 23:24:51 41° 68° (ENE) 1,105 3.4 -10.0°
Drops below altitude 10° 23:29:37 10° 359° (N) 2,316 5.3 -10.8°
Sets 23:32:02 0° 353° (N) 3,246 6.1 -11.2°
